Temperature
13 13 13 14 14 14 14 14 14 15 15 15 15 15 15 15 15 15 15 15 15 15 14 14 14 14 15 14 15 15 15 15 15 15 14 14 14 14 14 14 14 14 14
12 13 13 13 14 14 14 14 14 14 14 14 15 15 15 15 15 15 15 14 14 14 14 14 14 14 14 14 14 14 14 15 14 14 14 14 14 14 14 14 14 14 14
12 12 13 13 13 13 13 14 14 14 14 14 14 14 15 15 14 14 14 14 14 14 14 14 14 14 14 14 14 14 14 14 14 14 14 14 14 14 14 14 14 14 14
12 12 12 13 13 13 13 14 14 14 14 14 14 14 14 14 14 14 14 14 14 14 14 14 14 14 14 14 14 14 14 14 14 14 14 14 14 14 14 14 13 14 14
12 12 12 12 13 13 13 13 13 14 14 14 14 14 14 14 14 14 14 14 14 14 14 14 14 14 14 14 14 14 14 14 14 14 14 14 14 13 13 13 13 13 13
12 12 12 12 12 13 13 13 13 13 13 13 14 13 14 14 14 14 14 14 14 13 13 14 14 14 14 14 14 14 14 14 14 14 14 14 14 13 13 13 13 13 13
11 11 12 12 12 12 12 13 13 13 13 13 13 13 13 13 13 13 13 13 13 13 13 13 13 13 14 14 14 14 14 14 14 14 13 13 13 13 13 13 13 13 13
11 11 11 11 12 12 12 12 12 12 13 13 13 13 13 13 13 13 13 13 13 13 13 13 13 13 13 14 14 14 13 13 13 13 13 13 13 13 13 13 13 13 13
10 10 11 11 11 11 11 12 12 12 12 12 12 13 13 13 13 13 13 13 13 13 13 13 13 13 13 13 13 13 13 13 13 13 13 13 13 13 13 13 13 13 13
9 10 10 10 11 11 11 11 11 11 12 12 12 12 12 12 12 12 12 12 12 13 13 13 13 13 13 13 13 13 13 13 13 13 13 12 12 12 13 13 13 13 12
9 9 9 10 10 10 10 10 10 11 11 11 12 12 12 12 12 12 12 12 12 12 12 12 12 12 12 12 12 13 13 12 12 12 12 12 12 12 12 13 12 12 12
8 8 9 9 9 9 9 9 10 10 10 11 11 11 11 11 11 11 12 12 12 12 12 12 12 12 12 12 12 12 12 12 12 12 12 12 12 12 12 12 12 12 12
7 8 8 8 8 8 9 9 9 9 10 10 10 10 11 11 11 11 11 11 11 12 12 12 12 12 12 12 12 12 12 12 12 12 12 12 12 12 12 12 12 12 12
7 7 7 7 8 8 8 8 8 9 9 9 9 10 10 10 11 11 11 11 11 11 11 11 11 11 11 11 12 11 11 11 11 11 12 12 12 12 12 12 12 12 12
6 7 7 7 7 7 7 8 8 8 8 8 8 9 9 10 10 10 10 10 10 10 11 11 11 11 11 11 11 11 11 11 11 11 11 11 11 11 11 12 12 12 12
6 6 6 6 6 7 7 7 7 7 7 7 8 8 8 9 9 9 9 10 10 10 10 10 10 10 10 11 11 11 11 11 11 11 11 11 11 11 11 11 11 11 11
5 5 6 6 6 6 6 6 6 7 7 7 7 7 7 8 8 8 9 9 9 9 9 9 10 10 10 10 10 10 10 10 10 11 11 11 11 11 11 11 11 11 11
5 5 5 5 5 5 5 6 6 6 6 6 6 6 7 7 7 8 8 8 8 8 9 9 9 9 9 9 10 10 10 10 10 10 10 10 10 10 11 11 11 11 11
4 4 5 5 5 5 5 5 5 5 6 6 6 6 6 6 7 7 7 8 8 8 8 8 8 9 9 9 9 9 9 10 10 10 10 10 10 10 10 10 10 10 10
3 4 4 4 4 4 5 5 5 5 5 5 5 5 5 6 6 6 7 7 7 7 8 8 8 8 8 8 8 9 9 9 9 9 9 10 10 10 10 10 10 10 10
3 3 3 4 4 4 4 4 4 4 4 5 5 5 5 5 5 6 6 6 7 7 7 7 7 8 8 8 8 8 8 9 9 9 9 9 9 9 9 9 9 9 10
2 3 3 3 3 3 3 3 4 4 4 4 4 4 4 5 5 5 5 6 6 6 7 7 7 7 7 7 7 7 7 8 8 8 9 9 9 9 9 9 9 9 9
2 2 2 2 2 2 3 3 3 3 3 3 3 4 4 4 4 4 5 5 5 6 6 6 6 7 7 7 6 6 6 6 7 8 8 8 8 8 9 9 9 9 9
1 1 1 2 2 2 2 2 2 2 2 3 3 3 3 3 4 4 4 4 5 5 5 6 6 6 6 6 6 6 6 6 6 6 7 7 8 8 8 8 8 8 8
1 1 1 1 1 1 1 1 1 1 2 2 2 2 2 3 3 3 3 4 4 4 5 5 5 5 6 6 6 6 6 6 6 6 6 7 7 7 8 8 8 8 8
0 0 0 1 1 1 1 1 1 1 1 1 1 2 2 2 2 2 3 3 3 4 4 4 5 5 5 5 5 5 5 5 6 6 6 6 6 7 7 7 7 7 8
Wind_Speed
4 8 7 8 9 8 9 9 10 10 10 11 11 12 12 12 12 12 12 13 13 13 13 14 14 14 15 15 16 16 16 16 16 16 16 17 17 17 16 16 16 15 18
4 5 5 7 8 9 10 10 10 10 10 10 11 11 11 12 12 12 12 12 13 13 13 14 14 14 14 14 15 15 15 16 16 16 16 15 15 16 15 15 15 15 17
5 4 4 7 9 9 10 10 10 10 10 10 10 10 11 11 12 12 12 12 12 12 13 13 14 14 14 14 14 14 14 15 15 15 14 13 13 14 15 14 15 16 16
5 5 5 7 9 10 10 9 10 10 10 10 10 10 10 10 11 11 11 11 11 11 12 13 13 13 13 13 13 13 13 14 14 13 12 11 11 13 14 14 14 15 15
6 6 5 8 9 10 11 11 10 10 9 9 10 9 9 9 10 10 10 10 10 10 11 12 12 12 12 13 13 13 13 13 13 12 12 11 10 12 13 13 13 13 14
6 7 7 8 9 10 10 10 11 10 9 9 9 9 9 9 9 9 9 10 10 10 10 11 11 11 12 12 12 12 12 12 12 11 10 10 9 11 12 12 12 12 12
6 8 8 10 10 10 10 10 10 11 10 9 9 9 9 8 8 8 9 9 9 9 10 10 10 11 11 11 11 11 12 11 11 10 9 8 9 10 11 11 11 11 12
7 8 8 10 11 11 10 9 10 10 11 10 9 8 8 8 7 8 8 8 9 9 9 9 10 10 10 11 11 10 10 10 9 8 8 7 8 10 10 10 10 10 11
8 9 9 9 9 10 10 10 9 10 10 10 9 8 7 7 7 7 7 7 8 8 9 9 9 9 10 10 10 9 9 9 9 7 7 7 8 9 9 9 9 9 9
8 9 10 10 10 9 8 9 10 9 9 10 10 9 8 6 6 6 6 6 7 8 8 8 8 8 9 9 9 9 9 9 8 6 6 6 7 8 8 8 8 9 9
7 8 9 10 10 10 8 8 9 9 9 9 8 9 8 6 5 5 6 6 6 7 7 7 7 8 8 8 8 8 8 7 6 5 4 5 6 7 7 7 8 8 8
5 5 7 8 9 9 8 7 7 7 8 8 7 8 7 6 4 5 5 6 6 6 6 6 7 7 7 7 6 6 6 6 6 4 3 5 6 6 7 7 7 7 8
2 3 5 7 8 8 8 7 6 6 6 7 7 6 6 6 4 4 4 4 5 5 5 5 6 6 6 5 5 5 5 5 4 3 3 3 4 6 6 6 6 6 7
2 3 4 7 7 8 7 6 6 5 5 5 5 6 5 4 4 3 3 3 3 3 4 4 4 4 5 4 4 4 3 3 3 3 2 2 3 5 5 5 5 6 6
3 3 4 5 6 6 6 6 5 5 4 4 4 4 4 3 3 2 2 2 2 3 3 3 3 3 3 3 3 3 2 2 2 2 2 1 2 3 4 5 5 5 5
3 3 3 4 6 6 5 5 4 4 4 4 3 3 3 2 2 3 1 1 1 2 2 2 3 2 2 2 2 1 1 2 2 2 1 2 2 2 3 4 4 4 5
3 3 3 3 5 5 4 4 4 4 4 4 3 3 3 3 2 2 2 0 0 1 2 2 2 2 2 1 1 1 1 1 1 1 2 2 2 2 3 3 3 4 4
3 4 4 4 4 4 4 4 4 4 4 4 4 3 3 3 3 2 2 1 1 1 2 1 2 2 1 1 0 0 0 0 1 1 2 2 2 2 3 2 2 3 3
2 3 4 4 3 4 4 4 4 4 4 4 5 4 4 4 4 3 2 2 2 1 1 2 1 2 2 1 1 1 1 1 1 1 1 2 3 3 3 3 2 2 2
2 3 3 4 4 4 4 3 3 3 4 5 5 5 5 5 5 4 3 3 2 1 2 2 2 2 2 2 1 1 1 2 1 2 2 2 3 3 3 3 3 3 3
3 3 3 4 4 3 2 2 2 3 3 4 5 6 7 6 5 4 3 3 2 2 3 3 2 2 2 2 1 0 1 1 2 2 2 2 2 3 3 3 3 3 3
3 4 3 4 4 4 3 2 2 2 2 4 5 6 7 7 6 4 4 3 3 2 2 2 3 2 2 3 2 1 1 1 2 2 2 3 2 2 2 3 4 4 3
3 4 4 4 4 4 4 3 2 2 2 2 3 4 6 7 6 6 5 4 4 3 3 4 4 4 3 3 3 3 2 3 1 2 3 2 2 2 2 3 4 4 5
4 4 4 4 4 4 4 2 2 2 4 4 4 4 6 7 6 6 6 5 4 3 3 4 4 3 5 5 3 2 2 2 2 2 2 2 2 3 3 2 3 5 5
4 4 3 4 4 4 4 3 2 3 3 3 4 4 5 6 6 6 5 5 4 3 4 4 4 4 4 5 4 3 2 1 2 3 3 3 2 2 3 3 3 4 5
4 3 3 4 5 4 4 4 3 4 4 4 5 5 4 4 5 5 5 5 4 4 4 4 5 5 5 5 4 4 4 3 3 3 3 3 4 3 3 3 4 4 5
Wind_Direction
333 340 353 10 33 48 61 73 80 83 86 89 91 92 94 99 99 100 99 96 94 93 93 93 92 91 89 88 88 85 83 80 80 77 79 84 87 89 88 84 82 82 85
337 338 8 24 39 50 57 65 73 77 86 90 89 91 93 97 98 99 97 96 95 94 95 95 94 93 90 89 89 86 84 83 81 77 77 78 84 88 90 87 86 88 86
3 0 27 38 44 49 54 61 68 74 80 87 89 91 93 95 95 95 98 98 97 96 96 96 95 93 91 91 91 88 87 85 82 79 76 75 82 88 90 90 88 88 89
19 22 30 49 50 51 53 58 65 71 76 81 84 88 92 93 95 94 94 96 98 99 97 96 96 95 93 93 93 91 90 88 84 80 75 75 80 88 89 90 90 90 91
29 31 36 55 54 54 56 55 59 64 71 76 77 81 87 90 95 95 93 93 96 100 100 98 98 100 98 97 96 94 92 88 84 80 77 77 80 89 91 90 92 93 94
32 35 41 54 57 59 58 56 55 58 65 72 75 75 79 87 93 94 93 94 95 98 103 102 101 102 102 101 99 96 93 89 84 81 77 78 83 91 92 92 92 95 98
36 38 48 52 52 58 58 55 54 57 60 65 70 73 74 81 88 92 94 95 95 96 98 99 104 104 104 104 102 97 93 88 85 83 80 82 89 95 96 95 94 94 97
43 41 51 52 50 50 53 53 54 57 57 56 61 66 70 74 83 88 95 99 98 95 99 97 99 106 108 105 102 98 94 89 86 83 82 85 92 96 96 95 97 97 97
45 41 40 45 48 47 46 45 51 56 57 55 54 58 64 70 78 87 89 99 101 97 93 95 97 104 111 108 103 100 96 91 87 84 85 88 95 97 97 98 99 100 100
47 38 33 35 37 38 41 44 46 49 54 55 52 50 56 65 72 83 85 92 102 102 97 93 94 97 106 110 105 102 99 95 87 84 89 94 99 100 100 100 102 101 101
45 36 31 30 31 31 37 44 46 46 46 50 52 49 51 56 65 71 76 84 95 107 105 100 97 95 96 106 105 102 99 92 89 87 99 106 111 111 106 102 104 105 103
35 31 27 26 26 30 34 40 46 45 43 40 41 41 43 49 57 60 73 80 88 103 107 103 100 96 93 98 98 98 96 93 89 83 95 108 119 120 114 108 106 106 109
53 37 25 22 26 28 26 34 37 40 39 37 35 33 39 41 49 53 62 70 77 90 95 95 92 91 94 100 100 98 97 98 92 81 83 103 119 123 121 119 114 112 118
45 30 22 19 23 25 27 29 32 30 29 26 23 26 34 32 29 40 44 53 76 87 88 91 93 93 91 98 105 105 100 105 103 95 87 93 122 130 128 129 125 123 125
35 19 10 16 20 20 24 23 24 16 13 7 14 17 20 26 12 14 30 46 70 90 95 96 99 96 89 92 97 108 107 116 128 125 124 123 144 145 142 139 137 136 136
15 4 357 14 16 20 18 12 10 7 358 356 358 352 1 14 4 358 353 29 61 102 122 127 131 115 101 100 82 89 134 137 145 151 169 184 181 178 174 166 163 161 160
3 358 358 11 9 12 12 5 3 357 354 343 336 332 341 349 344 349 321 291 194 157 143 122 128 115 114 104 110 77 104 163 162 177 190 197 196 206 202 196 182 176 179
12 3 358 1 2 3 5 359 355 349 347 337 324 319 327 330 326 312 308 270 237 185 154 152 158 156 163 162 198 250 81 178 211 200 195 192 194 199 204 203 186 170 180
17 6 358 354 356 355 355 357 349 344 343 334 325 320 317 314 317 298 294 271 227 187 187 189 193 180 181 183 219 233 237 226 233 213 210 195 194 196 197 206 199 181 188
16 10 6 1 356 352 353 358 353 349 345 339 331 321 316 315 309 310 297 279 237 206 212 193 201 196 180 176 192 247 258 248 219 209 214 204 195 196 193 199 202 212 213
14 10 4 4 354 356 349 338 333 327 327 328 330 329 324 316 305 304 305 283 260 225 216 200 192 189 178 152 114 10 310 252 225 220 209 202 201 204 193 195 197 197 219
358 354 354 353 343 343 333 311 289 300 303 310 318 325 323 321 316 299 305 281 268 256 229 210 191 186 190 173 151 146 231 276 257 234 219 208 214 210 210 209 205 204 213
348 344 342 334 333 333 334 341 345 341 334 329 328 326 324 318 311 307 296 279 259 244 231 227 209 200 196 199 181 170 177 222 273 252 231 216 209 217 229 214 216 217 212
322 332 336 333 332 335 340 341 318 315 310 306 308 308 312 311 306 303 299 288 262 249 236 236 224 218 198 201 200 205 209 182 200 237 257 243 235 229 223 229 228 224 216
322 331 328 339 340 340 337 318 298 291 296 306 311 308 314 314 312 308 303 298 285 264 246 238 243 225 216 209 202 197 200 225 217 211 236 239 255 242 233 233 229 230 228
334 333 334 344 340 343 334 323 313 296 299 306 309 307 313 311 312 315 315 302 293 281 259 250 240 232 225 222 216 204 200 203 208 212 226 234 245 246 245 232 226 231 233
Height
1533 1534 1534 1535 1536 1537 1538 1538 1538 1539 1540 1540 1541 1541 1542 1542 1543 1543 1543 1544 1544 1544 1544 1544 1545 1545 1545 1545 1546 1546 1547 1547 1547 1547 1548 1548 1548 1548 1549 1549 1549 1550 1550
1533 1534 1534 1535 1536 1537 1538 1538 1539 1540 1540 1541 1542 1542 1543 1543 1543 1544 1544 1545 1545 1545 1545 1546 1546 1546 1546 1547 1547 1548 1548 1549 1549 1549 1549 1550 1550 1550 1551 1551 1552 1552 1552
1533 1534 1534 1535 1537 1537 1538 1539 1539 1540 1541 1542 1542 1543 1543 1544 1544 1545 1545 1545 1546 1546 1547 1547 1547 1547 1548 1548 1549 1549 1550 1550 1550 1551 1551 1551 1552 1552 1553 1553 1554 1554 1554
1533 1534 1534 1535 1537 1537 1538 1539 1540 1540 1541 1542 1543 1543 1544 1544 1545 1545 1545 1546 1546 1547 1547 1548 1548 1549 1549 1549 1550 1550 1551 1551 1552 1552 1553 1553 1553 1554 1554 1555 1555 1556 1556
1534 1534 1535 1536 1537 1537 1538 1539 1540 1541 1541 1542 1543 1544 1544 1545 1545 1545 1546 1546 1547 1548 1548 1548 1549 1550 1550 1550 1551 1552 1552 1553 1553 1554 1554 1554 1555 1555 1556 1556 1556 1557 1557
1534 1534 1535 1536 1537 1537 1538 1539 1540 1540 1541 1542 1543 1544 1544 1545 1545 1546 1546 1547 1547 1548 1549 1549 1550 1550 1551 1551 1552 1553 1553 1554 1554 1555 1555 1556 1556 1556 1557 1557 1558 1558 1559
1533 1534 1535 1536 1536 1537 1538 1538 1539 1540 1541 1542 1543 1543 1544 1544 1545 1546 1546 1547 1548 1548 1549 1550 1550 1551 1552 1552 1553 1553 1554 1555 1555 1556 1556 1557 1557 1557 1558 1558 1558 1559 1560
1533 1534 1535 1535 1536 1536 1537 1538 1539 1540 1540 1541 1542 1543 1543 1544 1545 1545 1546 1547 1548 1549 1549 1550 1551 1551 1552 1553 1553 1554 1555 1555 1556 1556 1557 1557 1558 1558 1558 1559 1559 1560 1560
1534 1534 1535 1535 1536 1536 1537 1537 1538 1539 1540 1540 1541 1542 1543 1544 1544 1545 1546 1547 1547 1548 1549 1550 1551 1552 1552 1553 1554 1554 1555 1556 1556 1557 1558 1558 1558 1559 1559 1559 1560 1560 1561
1533 1534 1534 1535 1535 1536 1536 1537 1537 1538 1539 1540 1540 1541 1542 1543 1544 1544 1545 1546 1547 1548 1549 1550 1551 1552 1552 1553 1554 1555 1555 1556 1557 1557 1558 1558 1559 1559 1559 1560 1560 1561 1561
1533 1533 1533 1533 1534 1535 1536 1536 1537 1537 1538 1539 1539 1540 1541 1542 1543 1543 1544 1545 1546 1547 1548 1550 1551 1551 1552 1553 1554 1555 1555 1556 1557 1557 1558 1558 1559 1559 1559 1560 1561 1561 1561
1531 1532 1532 1533 1533 1534 1534 1535 1536 1536 1537 1537 1538 1539 1540 1540 1541 1542 1543 1544 1545 1546 1547 1549 1550 1551 1552 1552 1553 1554 1555 1556 1556 1557 1558 1558 1559 1559 1559 1560 1560 1561 1561
1531 1531 1532 1532 1532 1533 1533 1533 1534 1535 1535 1536 1537 1537 1538 1539 1540 1540 1541 1543 1544 1545 1546 1547 1549 1550 1551 1551 1552 1553 1554 1555 1556 1557 1557 1558 1558 1559 1559 1560 1560 1561 1561
1531 1531 1531 1531 1531 1532 1532 1532 1533 1533 1533 1534 1535 1536 1536 1537 1538 1538 1540 1541 1542 1543 1544 1545 1547 1548 1549 1550 1551 1552 1553 1554 1555 1556 1557 1557 1558 1558 1559 1559 1560 1560 1561
1530 1530 1530 1530 1531 1531 1531 1531 1531 1532 1532 1533 1534 1534 1535 1535 1536 1537 1537 1539 1540 1541 1542 1543 1545 1546 1547 1549 1549 1550 1551 1552 1554 1555 1556 1556 1557 1558 1558 1559 1559 1560 1560
1529 1529 1529 1530 1530 1530 1530 1530 1530 1530 1531 1531 1532 1532 1533 1533 1534 1534 1535 1536 1537 1539 1540 1541 1543 1544 1545 1546 1547 1548 1549 1551 1552 1553 1554 1555 1556 1557 1557 1558 1558 1559 1559
1528 1528 1528 1528 1529 1529 1529 1529 1529 1529 1529 1529 1530 1530 1531 1531 1531 1532 1533 1534 1535 1536 1537 1539 1540 1541 1543 1544 1545 1546 1547 1549 1550 1551 1552 1553 1554 1555 1556 1557 1557 1558 1558
1527 1527 1527 1527 1527 1527 1527 1527 1527 1527 1527 1527 1528 1528 1528 1528 1529 1530 1530 1531 1532 1533 1535 1536 1537 1538 1540 1541 1542 1544 1545 1546 1547 1549 1550 1551 1552 1553 1554 1555 1556 1556 1557
1525 1525 1525 1525 1525 1525 1525 1525 1525 1525 1525 1525 1525 1525 1525 1526 1526 1527 1527 1528 1529 1530 1532 1533 1534 1535 1536 1538 1539 1541 1542 1543 1545 1546 1547 1549 1550 1551 1552 1552 1553 1554 1555
1524 1524 1524 1524 1523 1523 1523 1523 1523 1523 1523 1523 1522 1522 1522 1523 1523 1524 1525 1525 1526 1527 1528 1529 1531 1532 1533 1535 1536 1537 1539 1540 1542 1543 1544 1546 1547 1548 1549 1550 1551 1552 1553
1523 1522 1522 1521 1521 1521 1520 1519 1519 1519 1519 1519 1519 1519 1519 1519 1520 1520 1521 1521 1522 1523 1524 1526 1527 1528 1530 1531 1533 1534 1535 1537 1538 1539 1541 1542 1543 1545 1546 1547 1548 1549 1550
1520 1520 1520 1519 1519 1518 1518 1517 1517 1516 1516 1516 1516 1516 1516 1516 1516 1516 1517 1517 1518 1519 1520 1522 1523 1524 1526 1527 1529 1530 1531 1534 1534 1535 1537 1538 1540 1541 1542 1543 1544 1545 1546
1518 1518 1518 1517 1517 1516 1516 1515 1514 1514 1513 1513 1512 1512 1512 1512 1512 1512 1513 1513 1515 1515 1516 1517 1519 1520 1521 1523 1525 1527 1528 1528 1529 1531 1532 1533 1535 1537 1538 1539 1541 1542 1543
1516 1516 1516 1515 1515 1514 1513 1512 1511 1510 1509 1509 1508 1508 1508 1508 1508 1508 1509 1509 1510 1511 1512 1513 1515 1516 1517 1518 1520 1522 1524 1524 1526 1526 1527 1529 1531 1532 1533 1534 1536 1538 1539
1514 1513 1513 1513 1512 1512 1511 1510 1509 1508 1507 1506 1505 1505 1504 1504 1504 1504 1504 1505 1505 1506 1507 1508 1509 1511 1512 1513 1515 1516 1519 1520 1521 1522 1522 1524 1526 1527 1528 1530 1531 1533 1534
1512 1511 1511 1510 1509 1509 1508 1507 1505 1504 1503 1502 1502 1501 1500 1500 1500 1500 1500 1500 1501 1501 1502 1503 1504 1506 1507 1508 1510 1511 1513 1514 1516 1517 1518 1518 1520 1522 1523 1525 1526 1528 1529